Simultaneous Nadir Overpasses (SNOs) Predictions

Prediction of SNOs between GOES-17 and METOP-B Satellite Orbit:

Table of predicted SNOs for the next 14.0 days since TLE Epoch: 1/7/2023
Index Date Time (GOES-17) GOES-17 Lat,Lon METOP-B Lat,Lon Distance(km) Time Diff (sec)
1 01/07/2023 18:39:03 -0.00,-137.34 -0.10,-136.87 53.69 80
2 01/09/2023 06:55:23 0.01,-137.32 -0.92,-141.46 471.58 80
3 01/10/2023 06:37:24 0.00,-137.32 0.19,-136.46 97.13 80
4 01/11/2023 18:53:35 -0.00,-137.32 0.83,-141.02 422.54 80
5 01/12/2023 18:35:35 0.00,-137.31 -0.28,-136.03 146.01 80
6 01/14/2023 06:51:56 0.00,-137.29 -0.73,-140.62 380.03 80
7 01/15/2023 06:33:56 0.00,-137.28 0.39,-135.63 188.03 80
8 01/16/2023 18:50:07 -0.01,-137.26 0.62,-140.19 333.09 80
9 01/17/2023 18:32:07 -0.00,-137.24 -0.44,-135.18 234.42 80
10 01/19/2023 06:48:27 0.01,-137.21 -0.57,-139.78 293.46 80
11 01/20/2023 06:30:28 0.01,-137.18 0.56,-134.79 273.40 80
